User: anonymous   Login
Location: Unspecified
(0.0000°N, 0.0000°E)
Time: 23:16:03
(UTC+01:00)
Language:

Delta 168 - Orbit

View from above orbital plane
View from above orbital plane
View from above satellite
View from above satellite

Ground track
Ground track

The orbit data is extracted from the following two-line orbital elements,

1 14051U 83041B   14353.90802819  .00004884  00000-0  46586-3 0  6768
2 14051 025.3391 195.5544 1120891 278.1020 218.8816 13.03091400459295
Epoch (UTC): 19 December 2014 21:47:33
Eccentricity: 0.1120891
inclination: 25.3391°
perigee height: 395 km
apogee height: 2105 km
right ascension of ascending node: 195.5544°
argument of perigee: 278.1020°
revolutions per day: 13.03091400
mean anomaly at epoch: 218.8816°
orbit number at epoch: 45929

The dashed part of the orbit path shows where the satellite is in the earth's shadow,  

DLR